Retour au catalogue

THOR ABLESTAR DEB

ActifLEO
NORAD 134·DEBRIS·🇺🇸 United States

Lancé Jun 29, 1961 depuis Cape Canaveral Space Force Station

Loading…

Prochains Passages (prochaines 24 heures)

TLE

FraisSource: Space-Track

Époque: Sep 14, 2026, 05:27 UTC

1 00134U 61015U   26257.22750629  .00000048  00000-0  86633-4 0  9998
2 00134  66.8800 187.5184 0076375 130.6511 230.1246 13.97786336318145

Suivez THOR ABLESTAR DEB en temps réel avec AllMySat

Download on the App Store